#timestamp,LO_Frequency,Hit,StdDev 
1567497615.9,286046999.8,N
1567497635.7,286047002.2,N
1567497655.6,286047002.7,N
1567497675.4,286047000.1,N
1567497695.2,286047000.5,N
1567497715.1,286046998.8,N
1567497716.0,286046998.8,N
1567497735.8,286046996.6,N
1567497755.6,286046998.7,N
1567497775.5,286046998.9,N
1567497795.3,286046997.8,N
1567497815.2,286046996.5,N
1567497835.9,286046997.3,N
1567497855.7,286046996.5,N
1567497875.6,286046999.1,N
1567497895.4,286046996.5,N
1567497915.2,286046999.0,N
1567497935.1,286046996.9,N
1567497936.0,286046996.9,N
1567497955.8,286046999.5,N
1567497975.7,286046999.1,N
1567497995.5,286046996.9,N
1567498015.3,286046997.8,N
1567498035.2,286046997.2,N
1567498055.0,286046996.8,N
1567498055.9,286046996.8,N
1567498075.7,286046996.5,N
1567498095.6,286046997.8,N
1567498115.4,286046997.5,N
1567498135.3,286046997.9,N
1567498155.1,286046999.6,N
1567498156.0,286046999.6,N
1567498175.8,286046999.1,N
1567498195.7,286046999.3,N
1567498215.5,286046999.4,N
1567498235.3,286046996.5,Y
1567498255.2,286047000.9,P
1567498275.0,286047000.9,N
1567498275.9,286047000.9,N
1567498295.8,286046999.8,N
1567498315.6,286047002.7,N
1567498335.4,286047000.1,N
1567498355.3,286047000.6,N
1567498375.1,286047002.4,N
1567498395.8,286047000.0,N
1567498415.7,286047000.8,N
1567498435.5,286046998.8,N
1567498455.4,286046998.2,N
1567498475.2,286046998.2,N
1567498495.0,286046998.9,N
1567498495.9,286046998.9,N
1567498515.8,286046999.1,N
1567498535.6,286046998.4,N
1567498555.4,286046998.3,N
1567498575.3,286046998.4,N
1567498595.1,286047001.0,N
1567498615.9,286046998.2,N
1567498635.7,286047000.6,N
1567498655.5,286046998.3,N
1567498675.4,286047000.5,N
1567498695.2,286046998.5,N
1567498715.0,286047000.8,N
1567498716.0,286047000.8,N
1567498735.8,286046998.5,N
1567498755.6,286046998.8,N
1567498775.5,286046998.2,N
1567498795.3,286047002.7,N
1567498815.1,286047000.0,N
1567498835.9,286047000.0,N
1567498855.7,286047001.2,N
1567498905.6,286046998.3,E
1567498915.5,286047001.2,N
1567498935.3,286046998.1,P
1567498955.2,286047000.3,N
1567498975.0,286047000.5,N
1567498975.9,286047000.5,N
1567498995.8,286046998.4,N
1567499015.6,286046998.5,N
1567499035.4,286046998.5,N
1567499055.3,286046999.4,N
1567499075.1,286046998.9,N
1567499095.9,286046999.3,N
1567499115.7,286046996.8,Y
1567499135.5,286046998.1,P
1567499155.4,286046999.1,N
1567499175.2,286046998.4,N
1567499195.0,286046999.0,N
1567499196.0,286046999.0,N
1567499215.8,286046999.4,N
1567499235.6,286046999.1,N
1567499255.5,286046999.3,N
1567499275.3,286046999.6,N
1567499295.1,286046998.1,Y
1567499315.9,286046999.7,P
1567499335.7,286047001.6,P
1567499355.6,286047001.3,N
1567499375.4,286047002.4,N
1567499395.2,286047001.4,N
1567499415.1,286047003.7,Y
1567499416.0,286047003.7,P
1567499435.8,286047001.7,N
1567499455.7,286047001.6,N
1567499475.5,286047002.4,N
1567499495.3,286047002.2,N
1567499515.2,286047002.5,N
1567499535.0,286047001.6,N
1567499535.9,286047001.6,N
1567499555.7,286047001.8,N
1567499575.6,286047002.5,Y
1567499595.4,286046998.3,P
1567499615.3,286046998.3,N
1567499635.1,286047000.4,N
1567499655.8,286046998.9,N
1567499675.7,286047000.0,N
1567499695.5,286047000.7,N
1567499715.4,286047000.7,N
1567499735.2,286047000.3,N
1567499755.0,286047000.6,N
1567499755.9,286047000.6,N
1567499775.8,286046998.6,N
1567499795.6,286047001.0,N
1567499815.5,286046999.6,N
1567499835.3,286046998.9,N
1567499855.1,286046999.5,N
1567499875.9,286046996.9,Y
1567499895.7,286046997.4,P
1567499915.5,286046997.4,N
1567499935.4,286046997.5,N
1567499955.2,286046995.0,Y
1567499975.1,286046997.8,P
1567499976.0,286046997.8,P
1567499995.8,286046997.8,P
1567500015.7,286046999.3,Y
1567500035.5,286047000.3,P
1567500055.3,286047001.8,N
1567500075.2,286047004.2,N
1567500095.9,286047001.8,N
1567500115.7,286047001.7,N
1567500135.6,286047002.1,N
1567500155.4,286046999.7,N
1567500175.2,286046998.7,N
1567500195.1,286046999.0,N
1567500196.0,286046999.0,N
1567500215.8,286046998.9,N
1567500235.7,286047000.7,N
1567500255.5,286046999.8,N
1567500275.3,286047001.6,N
1567500295.2,286047003.5,N
1567500315.0,286047003.8,N
1567500315.9,286047003.8,N
1567500335.8,286047001.8,N
1567500355.6,286047002.0,N
1567500375.4,286047000.1,N
1567500395.3,286046999.7,N
1567500415.1,286047000.5,N
1567500435.8,286046999.8,N
1567500455.7,286047002.5,N
1567500475.5,286046999.9,N
1567500495.4,286047001.1,N
1567500515.2,286047001.0,N
1567500535.0,286047000.9,N
1567500535.9,286047000.9,N
1567500555.8,286046998.8,N
1567500575.6,286046999.2,N
1567500595.4,286046999.1,N
1567500615.3,286046998.8,N
1567500635.1,286046998.2,N
1567500655.9,286046998.3,N
1567500675.7,286047001.1,N
1567500695.5,286046998.3,N
1567500715.4,286047000.6,N
1567500735.2,286047002.3,N
1567500755.0,286047002.7,N
1567500756.0,286047002.7,N
1567500775.8,286047002.1,N
1567500795.6,286046999.7,N
1567500815.5,286046999.8,N
1567500835.3,286046998.7,N
1567500855.1,286046998.7,N
1567500875.9,286046998.1,N
1567500895.7,286047000.5,N
1567500915.5,286046999.9,N
1567500935.4,286047000.6,N
1567500955.2,286046998.1,N
1567500975.1,286046999.7,N
1567500976.0,286046999.7,N
1567500995.8,286047000.1,N
1567501015.6,286046999.7,N
1567501035.5,286046999.7,N
1567501055.3,286047000.1,N
1567501075.1,286046999.9,N
1567501095.9,286046999.8,N
1567501115.7,286047000.7,N
1567501135.6,286047000.3,N
1567501155.4,286047002.2,N
1567501175.2,286046999.7,N
1567501195.1,286047002.3,N
1567501196.0,286047002.3,N
